Regional Weather Roundup
Issued by NWS

Home | Current Version | Previous Version | Graphics & Text | Print | Product List | Glossary On
Versions: 1 2 3 4 5 6 7 8 9 10 11 12 13 14 15 16 17 18 19 20 21 22 23 24 25 26 27 28 29 30 31 32 33 34 35 36 37 38 39 40 41 42 43 44 45 46 47 48 49 50
000
ASUS43 KOAX 252102
RWRNE

WEATHER ROUNDUP FOR NEBRASKA
NATIONAL WEATHER SERVICE OMAHA NE
400 PM CDT SAT APR 25 2015

NOTES: SATELLITE DATA IS BEING USED TO AUGMENT CLOUD COVER ABOVE
       12000 FEET.
       "FAIR" INDICATES FEW OR NO CLOUDS BELOW 12,000 FEET WITH NO
       SIGNIFICANT WEATHER AND/OR OBSTRUCTIONS TO VISIBILITY.

  * THESE STATIONS DO NOT REPORT WEATHER SUCH AS RAIN...SNOW OR FOG.

NEZ001>004-019>022-054>056-252200-
NEBRASKA PANHANDLE

CITY           SKY/WX    TMP DP  RH WIND       PRES   REMARKS
SCOTTSBLUFF    MOSUNNY   68  37  32 VRB6G25   29.67F
ALLIANCE       PTSUNNY   67  41  38 MISG      29.67F
CHADRON        PTSUNNY   68  47  46 E9        29.65F
KIMBALL        PTSUNNY   60  40  48 N7        29.70F
SIDNEY         MOSUNNY   68  41  37 MISG      29.70F
$$

NEZ057>060-069>072-079>082-252200-
SOUTHWEST NEBRASKA

CITY           SKY/WX    TMP DP  RH WIND       PRES   REMARKS
IMPERIAL       MOSUNNY   70  45  40 E9        29.68S
MCCOOK         MOSUNNY   73  48  41 NE13      29.68S
$$

NEZ005>010-023>029-035>040-094-252200-
NORTH CENTRAL NEBRASKA

CITY           SKY/WX    TMP DP  RH WIND       PRES   REMARKS
VALENTINE      CLOUDY    61  46  57 SE13      29.74R
AINSWORTH      CLOUDY    60  49  66 SE12G18   29.74F
BROKEN BOW     CLOUDY    55  48  77 NE13      29.74S
ORD            CLOUDY    56  46  69 E13       29.74R
$$

NEZ041-046>049-061>064-073>077-083>087-252200-
SOUTH CENTRAL NEBRASKA

CITY           SKY/WX    TMP DP  RH WIND       PRES   REMARKS
GRAND ISLAND   CLOUDY    49  47  93 NE10      29.74R FOG
AURORA         CLOUDY    48  48 100 NE13G18   29.73S FOG
HASTINGS       CLOUDY    50  47  89 NE14      29.73R
KEARNEY *      CLOUDY    52  46  82 NE13      29.74R
YORK           CLOUDY    48  46  93 N10       29.74S FOG
$$

NEZ011>018-030>034-042>045-252200-
NORTHEAST NEBRASKA

CITY           SKY/WX    TMP DP  RH WIND       PRES   REMARKS
NORFOLK        PTSUNNY   59  45  59 E14       29.74R
BLAIR          CLOUDY    51  46  80 NE15      29.71R
COLUMBUS *     CLOUDY    52  45  76 NE14      29.76R
TEKAMAH        CLOUDY    53  46  77 NE18      29.73S
$$

NEZ050>053-065>068-078-088>093-252200-
SOUTHEAST NEBRASKA

CITY           SKY/WX    TMP DP  RH WIND       PRES   REMARKS
LINCOLN        CLOUDY    52  47  83 NE14      29.72R
OMAHA EPPLEY   CLOUDY    53  46  77 NE10      29.71R
FALLS CITY     CLOUDY    51  48  89 N7        29.67R
PLATTSMOUTH    CLOUDY    51  47  86 N9        29.70R
$$

NEZ044-045-051>053-067-252200-
OMAHA AREA

CITY           SKY/WX    TMP DP  RH WIND       PRES   REMARKS
OMAHA EPPLEY   CLOUDY    53  46  77 NE10      29.71R
BLAIR          CLOUDY    51  46  80 NE15      29.71R
OFFUTT AFB     CLOUDY    52  46  82 N12G21    29.70R
PLATTSMOUTH    CLOUDY    51  47  86 N9        29.70R
$$


USA.gov is the U.S. government's official web portal to all federal, state and local government web resources and services.